Flag for Poland Weather past 2 weeks in Poznan, Poland

Now
45 °F

Partly sunny.


Feels Like: 39 °F
Forecast: 37 / 52 °F
Wind: 10 mph from Northwest

Location: Poznan Airport

Current Time: Mar 28, 2015 at 10:22:22 AM

Latest Report: Mar 28, 2015 at 10:00 AM


Visibility: N/A

Pressure: 30.09 "Hg

Humidity: 81%

Dew point: 39 °F

Location of PoznanLocation

Historic Weather in Poznan — Graph

°F

Poznan temperature yesterday

Maximum temperature yesterday: 48 °F (at 12:00 PM)
Minimum temperature yesterday: 43 °F (at 5:00 AM)
Average temperature yesterday: 45 °F

Past Weeks' High & Low Weather Summary

 TemperatureHumidityPressure
High63 °F (Mar 25, 1:30 PM)94% (Mar 26, 9:30 AM)30.60 "Hg (Mar 26, 9:30 AM)
Low25 °F (Mar 20, 4:30 AM)22% (Mar 18, 1:30 PM)29.68 "Hg (Mar 26, 10:00 AM)
Average43 °F62%30.18 "Hg
* Reported Mar 13 9:00 AM — Mar 28 9:00 AM, Poznan, Weather by CustomWeather, © 2015

Note: Actual official high and low records may vary slightly from our data, if they occured in-between our weather recording intervals... More about our weather records

Advertising

Poznan weather history for previous 24 hours

 ConditionsComfort  
Time TempWeatherWind HumidityBarometerVisibility
9:00 AM
Sat, Mar 28
45 °FPartly sunny.12 mph87%30.07 "Hg5 mi
8:30 AM43 °FSprinkles. Scattered clouds.9 mph87%30.07 "Hg5 mi
8:00 AM43 °FPartly sunny.9 mph93%30.09 "Hg5 mi
7:30 AM43 °FPartly sunny.8 mph87%30.07 "Hg5 mi
7:00 AM43 °FPartly sunny.8 mph87%30.07 "Hg5 mi
6:30 AM41 °FPartly sunny.8 mph93%30.07 "Hg5 mi
6:00 AM41 °FLight rain. Broken clouds.9 mph93%30.07 "Hg4 mi
5:30 AM43 °FPassing clouds.7 mph87%30.04 "Hg4 mi
4:30 AM43 °FPassing clouds.8 mph87%30.04 "HgN/A
4:00 AM43 °FPassing clouds.7 mph87%30.04 "HgN/A
3:30 AM43 °FPassing clouds.6 mph87%30.04 "HgN/A
3:00 AM43 °FPassing clouds.7 mph87%30.04 "HgN/A
2:30 AM43 °FClear.7 mph87%30.01 "Hg10 mi
2:00 AM43 °FClear.5 mph87%30.04 "Hg10 mi
1:30 AM41 °FClear.5 mph93%30.01 "Hg10 mi
1:00 AM43 °FClear.6 mph81%30.01 "Hg10 mi
12:30 AM43 °FPassing clouds.9 mph81%30.01 "HgN/A
12:00 AM43 °FClear.10 mph81%30.01 "Hg10 mi
11:30 PM
Fri, Mar 27
43 °FClear.9 mph81%30.01 "Hg10 mi
11:00 PM43 °FClear.7 mph81%30.01 "Hg10 mi
10:30 PM43 °FClear.7 mph87%29.98 "Hg10 mi
10:00 PM43 °FClear.5 mph87%29.98 "Hg5 mi
9:30 PM43 °FClear.3 mph87%29.98 "Hg5 mi
9:00 PM43 °FPassing clouds.1 mph87%29.98 "Hg5 mi
8:30 PM45 °FPassing clouds.3 mph81%29.98 "HgN/A
8:00 PM45 °FPassing clouds.2 mph87%29.98 "HgN/A
7:30 PM45 °FClear.1 mph81%29.95 "Hg10 mi
7:00 PM46 °FClear.2 mph76%29.95 "Hg10 mi
6:30 PM48 °FClear.3 mph71%29.95 "Hg4 mi
6:00 PM48 °FClear.3 mph71%29.95 "Hg4 mi
5:30 PM48 °FClear.3 mph76%29.95 "Hg4 mi
5:00 PM48 °FClear.2 mph76%29.92 "Hg4 mi
4:30 PM46 °FPartly sunny.5 mph82%29.92 "Hg5 mi
4:00 PM48 °FScattered clouds.6 mph71%29.92 "Hg5 mi
3:30 PM48 °FPartly sunny.7 mph71%29.92 "HgN/A
3:00 PM48 °FPartly sunny.10 mph71%29.89 "HgN/A
2:30 PM48 °FPartly sunny.8 mph71%29.92 "HgN/A
2:00 PM48 °FPartly sunny.9 mph71%29.89 "HgN/A
1:30 PM48 °FBroken clouds.8 mph71%29.89 "HgN/A
1:00 PM48 °FBroken clouds.8 mph71%29.89 "HgN/A
12:30 PM48 °FPartly sunny.8 mph71%29.89 "HgN/A
12:00 PM48 °FBroken clouds.9 mph76%29.89 "HgN/A
11:30 AM46 °FPartly sunny.9 mph82%29.89 "HgN/A
11:00 AM46 °FPartly sunny.9 mph82%29.86 "Hg5 mi
10:30 AM45 °FPartly sunny.9 mph93%29.86 "Hg5 mi
10:00 AM45 °FLight rain. Partly sunny.9 mph93%29.86 "Hg4 mi
Weather by CustomWeather, © 2015

See weather overviewHow to use our weather pages